Bellingham, WA

10:49 AM PST on February 10, 2016 (GMT -0800)
Bellingham International

Weather History for KBLI - July, 2012

Change the Weather History Date:

Thursday, July 12, 2012

  Actual Average Record
Temperature  
Mean Temperature 64 °F 62 °F  
Max Temperature 73 °F 71 °F 92 °F (1951)
Min Temperature 54 °F 53 °F 45 °F (1954)
Degree Days  
Heating Degree Days 2 3  
Month to date heating degree days 43  
Since 1 June heating degree days 244  
Cooling Degree Days 0 0  
Month to date cooling degree days 0  
Year to date cooling degree days 4  
Since 1 June cooling degree days 4  
Growing Degree Days 14 (Base 50)    
Moisture  
Dew Point 55 °F    
Average Humidity 84    
Maximum Humidity 100    
Minimum Humidity 60    
Precipitation  
Precipitation 0.00 in 0.05 in 1.39 in (1972)
Month to date precipitation 0.55  
Year to date precipitation 18.49  
Sea Level Pressure  
Sea Level Pressure 29.98 in    
Wind  
Wind Speed 6 mph (South)    
Max Wind Speed 10 mph    
Max Gust Speed -    
Visibility 6 miles    
Events Fog    
T = Trace of Precipitation, MM = Missing Value Source: NWS Daily Summary

Daily Weather History Graph

Daily Weather History Graph

Search for Another Location

Airport or City:

Trip Planner

Search our weather history database for the weather conditions in past years. The results will help you decide how hot, cold, wet, or windy it might be!

Date:

Astronomy

Jul. 12, 2012 Rise Set
Actual Time 5:20 AM PDT 9:10 PM PDT
Civil Twilight 4:39 AM PDT 9:51 PM PDT
Nautical Twilight 3:43 AM PDT 10:46 PM PDT
Astronomical Twilight 2:17 AM PDT 12:11 AM PDT
Moon 12:38 AM PDT (7/12) 3:40 PM PDT (7/12)
Length of Visible Light 17h 11m
Length of Day
15h 50m
Waning Crescent, 34% of the Moon is Illuminated
Jul 12
Waning Crescent
Jul 18
New
Jul 26
First Quarter
Aug 1
Full
Aug 9
Last Quarter

Hourly Weather History & Observations

Time (PDT) Temp. Dew Point Humidity Pressure Visibility Wind Dir Wind Speed Gust Speed Precip Events Conditions
12:53 AM 59.0 °F 55.9 °F 90% 29.98 in 10.0 mi South 5.8 mph - N/A   Clear
1:53 AM 57.9 °F 55.0 °F 90% 29.98 in 10.0 mi South 6.9 mph - N/A   Clear
2:53 AM 57.0 °F 55.0 °F 93% 29.98 in 10.0 mi South 4.6 mph - N/A   Clear
3:53 AM 55.9 °F 54.0 °F 93% 29.98 in 10.0 mi South 6.9 mph - N/A   Clear
4:51 AM 55.4 °F 53.6 °F 94% 29.96 in 9.0 mi SSW 4.6 mph - N/A   Scattered Clouds
4:53 AM 55.0 °F 54.0 °F 96% 29.98 in 9.0 mi SSW 3.5 mph - N/A   Scattered Clouds
5:00 AM 55.4 °F 53.6 °F 94% 29.97 in 5.0 mi South 4.6 mph - N/A   Mostly Cloudy
5:04 AM 55.4 °F 53.6 °F 94% 29.97 in 1.5 mi SSW 4.6 mph - N/A   Mostly Cloudy
5:10 AM 55.4 °F 53.6 °F 94% 29.97 in 0.5 mi South 4.6 mph - N/A Fog Fog
5:23 AM 55.4 °F 53.6 °F 94% 29.97 in 0.2 mi South 4.6 mph - N/A Fog Fog
5:53 AM 54.0 °F 54.0 °F 100% 29.99 in 0.2 mi South 9.2 mph - N/A Fog Fog
6:53 AM 55.0 °F 54.0 °F 96% 29.99 in 0.2 mi South 6.9 mph - N/A Fog Fog
7:53 AM 55.0 °F 54.0 °F 96% 30.01 in 0.2 mi South 5.8 mph - N/A Fog Fog
8:24 AM 55.4 °F 53.6 °F 94% 29.99 in 0.2 mi South 4.6 mph - N/A Fog Fog
8:53 AM 55.0 °F 54.0 °F 96% 30.01 in 0.2 mi South 6.9 mph - N/A Fog Fog
9:23 AM 55.4 °F 53.6 °F 94% 30.00 in 0.5 mi South 8.1 mph - N/A Fog Fog
9:53 AM 57.0 °F 55.0 °F 93% 30.01 in 0.5 mi South 6.9 mph - N/A Fog Fog
10:04 AM 57.2 °F 55.4 °F 94% 29.99 in 1.0 mi South 8.1 mph - N/A   Overcast
10:15 AM 57.2 °F 53.6 °F 88% 29.99 in 0.8 mi South 6.9 mph - N/A   Overcast
10:53 AM 59.0 °F 55.0 °F 87% 30.01 in 0.8 mi Variable 6.9 mph - N/A   Overcast
11:33 AM 60.8 °F 55.4 °F 82% 29.99 in 1.0 mi South 10.4 mph - N/A   Haze
11:43 AM 60.8 °F 55.4 °F 82% 29.99 in 5.0 mi South 9.2 mph - N/A   Scattered Clouds
11:53 AM 62.1 °F 55.9 °F 80% 30.00 in 6.0 mi SSE 10.4 mph - N/A   Haze
12:53 PM 66.0 °F 55.9 °F 70% 30.00 in 10.0 mi SSE 8.1 mph - N/A   Clear
1:53 PM 68.0 °F 57.0 °F 68% 29.99 in 10.0 mi SSE 8.1 mph - N/A   Clear
2:53 PM 70.0 °F 57.9 °F 65% 29.99 in 10.0 mi South 5.8 mph - N/A   Clear
3:53 PM 73.0 °F 59.0 °F 61% 29.98 in 10.0 mi SW 4.6 mph - N/A   Clear
4:53 PM 72.0 °F 59.0 °F 64% 29.97 in 10.0 mi SSE 8.1 mph - N/A   Clear
5:53 PM 71.6 °F 57.2 °F 60% 29.94 in 10.0 mi South 6.9 mph - N/A   Clear
6:53 PM 70.0 °F 57.9 °F 65% 29.95 in 10.0 mi SSE 8.1 mph - N/A   Clear
7:53 PM 68.0 °F 55.9 °F 65% 29.95 in 10.0 mi South 8.1 mph - N/A   Clear
8:53 PM 68.0 °F 57.2 °F 68% 29.94 in 10.0 mi South 6.9 mph - N/A   Clear
9:53 PM 64.0 °F 57.0 °F 78% 29.97 in 10.0 mi South 9.2 mph - N/A   Clear
10:53 PM 63.0 °F 57.0 °F 81% 29.98 in 10.0 mi South 8.1 mph - N/A   Clear
11:53 PM 62.1 °F 57.0 °F 84% 29.98 in 10.0 mi South 10.4 mph - N/A   Clear